"Pseudo-MPEC" for P11DBXY

Created 2023 Mar 22 14:22:10 UT using Find_Orb

Click here for an explanation of pseudo-MPECs

 
 Astrometry: 
     P11DBXY* C2023 03 18Ue-Astrometry[$U+a=fT$;U=Gq8l.K7Nnq@A;17Jredacted;wEF51
     P11DBXY  C2023 03 18,!;;`VYM17hfTclick58F[FrLN@xn;9ZS=1xIhere29?LoxyZ5gGF51
     P11DBXY  C2023 03 18CV9il9;g\6Qfor/J*M[\PGOosyexplanationGsY6:ZYKs#=f5.TF51

Station data:
(F51) Pan-STARRS 1, Haleakala  (N20.707234 W156.255910)  US/Hawaii.
   Observers J. Bulger, T. Lowe, A. Schultz, M. Willman. Measurers K.
   Chambers, S. Chastel, T. de Boer, L. Denneau, J. Fairlamb, H. Flewelling,
   M. Huber, C.-C. Lin, E. Magnier, Y. Ramanjooloo, R. Wainscoat, R. Weryk.
   1.8-m Ritchey-Chrétien + CCD.

Orbital elements:  P11DBXY
   Perihelion 2024 May 4.94396 +/- 344 TT = 22:39:18 (JD 2460435.44396)
Epoch 2023 Mar 18.0 TT = JDT 2460021.5   Earth MOID: 0.6545      AutoNEOCP
M 200.75596138 +/- 120              (J2000 ecliptic)
n   0.38469950 +/- 0.225            Peri.  241.24621 +/- 56
a   1.87235543 +/- 0.731            Node    97.28059 +/- 60
e   0.1490357 +/- 0.272             Incl.   23.60848 +/- 47
P   2.56/935.78d           H 18.60  G  0.15   U 11.8  SR
q 1.59330749 +/- 1.11    Q 2.15140337 +/- 30.7
From 3 observations 2023 Mar. 18 (32.6 min); mean residual 0".03
Residuals in arcseconds: 
230318 F51  .01+  .03+    230318 F51  .03-  .05-    230318 F51  .01+  .03+    

Ephemerides (geocentric):
Date (UTC) HH   RA             Dec           delta  r     elong  mag " sig PA
---- --------  ------------   ------------  ------ ------ -----  --- --------
2023 03 22 14  12 32 21.917   +41 22 33.13  1.2908 2.1352 137.6 21.8 1458 178
2023 03 22 15  12 32 18.621   +41 22 51.04  1.2908 2.1351 137.6 21.8 1477 178
2023 03 22 16  12 32 15.324   +41 23 08.88  1.2909 2.1351 137.6 21.8 1497 178
2023 03 22 17  12 32 12.026   +41 23 26.67  1.2910 2.1351 137.6 21.8 1517 178
2023 03 22 18  12 32 08.727   +41 23 44.40  1.2910 2.1351 137.6 21.8 1537 178
2023 03 22 19  12 32 05.428   +41 24 02.07  1.2911 2.1350 137.6 21.8 1558 178
2023 03 22 20  12 32 02.127   +41 24 19.68  1.2912 2.1350 137.5 21.8 1578 178
2023 03 22 21  12 31 58.826   +41 24 37.24  1.2913 2.1350 137.5 21.8 1599 178
2023 03 22 22  12 31 55.524   +41 24 54.73  1.2913 2.1350 137.5 21.8 1620 178
2023 03 22 23  12 31 52.221   +41 25 12.18  1.2914 2.1350 137.5 21.8 1641 178
2023 03 23 00  12 31 48.917   +41 25 29.56  1.2915 2.1349 137.5 21.8 1662 178
2023 03 23 01  12 31 45.612   +41 25 46.88  1.2916 2.1349 137.5 21.8 1684 178
2023 03 23 02  12 31 42.306   +41 26 04.15  1.2916 2.1349 137.5 21.8 1705 178
2023 03 23 03  12 31 39.000   +41 26 21.36  1.2917 2.1349 137.4 21.8 1727 178
2023 03 23 04  12 31 35.693   +41 26 38.51  1.2918 2.1348 137.4 21.8 1749 178
2023 03 23 05  12 31 32.385   +41 26 55.60  1.2919 2.1348 137.4 21.8 1772 178
2023 03 23 06  12 31 29.076   +41 27 12.64  1.2919 2.1348 137.4 21.8 1794 178
2023 03 23 07  12 31 25.766   +41 27 29.62  1.2920 2.1348 137.4 21.8 1817 178
2023 03 23 08  12 31 22.456   +41 27 46.54  1.2921 2.1347 137.4 21.8 1840 178
2023 03 23 09  12 31 19.145   +41 28 03.40  1.2922 2.1347 137.3 21.8 1863 178
2023 03 23 10  12 31 15.833   +41 28 20.20  1.2923 2.1347 137.3 21.8 1887 178
2023 03 23 11  12 31 12.521   +41 28 36.95  1.2923 2.1347 137.3 21.8 1911 178
2023 03 23 12  12 31 09.208   +41 28 53.64  1.2924 2.1346 137.3 21.8 1935 178
2023 03 23 13  12 31 05.894   +41 29 10.27  1.2925 2.1346 137.3 21.8 1959 178
2023 03 23 14  12 31 02.579   +41 29 26.84  1.2926 2.1346 137.3 21.8 1983 178
2023 03 23 15  12 30 59.264   +41 29 43.35  1.2926 2.1346 137.3 21.8 2008 178
2023 03 23 16  12 30 55.948   +41 29 59.81  1.2927 2.1346 137.2 21.8 2033 178
2023 03 23 17  12 30 52.631   +41 30 16.20  1.2928 2.1345 137.2 21.8 2058 178
2023 03 23 18  12 30 49.314   +41 30 32.54  1.2929 2.1345 137.2 21.8 2084 178
2023 03 23 19  12 30 45.996   +41 30 48.82  1.2930 2.1345 137.2 21.8 2110 178
2023 03 23 20  12 30 42.677   +41 31 05.05  1.2931 2.1345 137.2 21.8 2136 178
2023 03 23 21  12 30 39.358   +41 31 21.21  1.2931 2.1344 137.2 21.8 2162 178
2023 03 23 22  12 30 36.038   +41 31 37.32  1.2932 2.1344 137.1 21.8 2189 178
2023 03 23 23  12 30 32.717   +41 31 53.36  1.2933 2.1344 137.1 21.8 2216 177
2023 03 24 00  12 30 29.396   +41 32 09.35  1.2934 2.1344 137.1 21.8 2244 177
2023 03 24 01  12 30 26.074   +41 32 25.28  1.2935 2.1343 137.1 21.8 2271 177
2023 03 24 02  12 30 22.752   +41 32 41.16  1.2935 2.1343 137.1 21.8 2299 177
2023 03 24 03  12 30 19.429   +41 32 56.97  1.2936 2.1343 137.1 21.8 2328 177
2023 03 24 04  12 30 16.106   +41 33 12.73  1.2937 2.1343 137.1 21.8 2356 177
2023 03 24 05  12 30 12.782   +41 33 28.42  1.2938 2.1343 137.0 21.8 2386 177
2023 03 24 06  12 30 09.457   +41 33 44.06  1.2939 2.1342 137.0 21.8 2415 177
2023 03 24 07  12 30 06.132   +41 33 59.64  1.2940 2.1342 137.0 21.8 2445 177
2023 03 24 08  12 30 02.806   +41 34 15.16  1.2941 2.1342 137.0 21.8 2475 177
2023 03 24 09  12 29 59.480   +41 34 30.63  1.2941 2.1342 137.0 21.8 2506 177
2023 03 24 10  12 29 56.153   +41 34 46.03  1.2942 2.1341 137.0 21.8 2537 177
2023 03 24 11  12 29 52.826   +41 35 01.38  1.2943 2.1341 136.9 21.8 2568 177
2023 03 24 12  12 29 49.499   +41 35 16.66  1.2944 2.1341 136.9 21.8 2600 177
2023 03 24 13  12 29 46.170   +41 35 31.89  1.2945 2.1341 136.9 21.8 2632 177